XW-2C (40906 NORAD) Tracking and Keplerian Element Data

This shows tracking and keplerian element data for the satellite.

Feedback or suggestion? Click here.




ElementValue
Catalog40906
NameXW-2C
Epoch Orbit50267
Epoch Day286.83641099
Epoch Year2024
RAAN307.6276
Inclination97.4689
Eccentricity0.0004823
Argument of Perigee206.5283
Mean Anonmoly153.5725
Mean Motion15.56170932
Decay Rate0.00090273
L11 40906U 15049H 24286.83641099 .00090273 00000+0 12784-2 0 9994
L22 40906 97.4689 307.6276 0004823 206.5283 153.5725 15.56170932502675



Live tracking and technical data element details for XW-2C (NORAD 40906). XW-2C can be tracked NOW for your location showing map with azimuth and elevation plus other details from your city location.







IsCatalogInMostPopularTable: catalog: 40906, numindb: 561
Update: records affected: 1



GetName: 40906 XW-2C

Hit Count: updated at: Thu, 23 Jan 2025 18:10:35 GMT